Location: Sevilla
(37.3933°N, 5.9839°W)
Time: 03:46:08
(UTC+02:00)

Transit 2A - Pass Details

Date: 30 June 2024
Orbit: 591 x 960 km, 66.7° (Epoch: 13 July)

Event Time Altitude Azimuth Distance (km) Brightness Sun altitude
Rises 14:16:29 0° 174° (S) 2,974 9.3 75.5°
Reaches altitude 10° 14:19:01 10° 161° (SSE) 2,121 8.7 75.6°
Maximum altitude 14:22:56 25° 106° (ESE) 1,440 7.9 75.7°
Drops below altitude 10° 14:27:11 10° 52° (NE) 2,327 8.5 75.7°
Sets 14:30:05 0° 40° (NE) 3,331 9.2 75.7°
